Location: Buena Vista
(37.7110°N, 119.7938°W)
Time: 12:54:22
(UTC+00:00)

METEOR M2 - Visible Passes

Search period start: 03 October 2024 00:00
Search period end: 13 October 2024 00:00
Orbit: 817 x 826 km, 98.4° (Epoch: 03 October)

Date Brightness Start Highest point End Pass type
(mag) Time Alt. Az. Time Alt. Az. Time Alt. Az.
03 Oct ? 11:48:09 10° ENE 11:49:59 12° E 11:51:48 10° ESE visible
03 Oct ? 13:25:16 10° N 13:30:39 76° WNW 13:35:59 10° SSW visible
04 Oct ? 13:05:00 10° NNE 13:10:21 70° ESE 13:15:41 10° S visible
05 Oct ? 12:44:52 10° NNE 12:50:00 45° E 12:55:06 10° S visible
06 Oct ? 12:24:58 10° NE 12:29:36 29° E 12:34:12 10° SSE visible
07 Oct ? 12:05:26 10° NE 12:09:07 19° E 12:12:48 10° SE visible
08 Oct ? 11:46:53 10° ENE 11:48:35 11° E 11:50:17 10° ESE visible
08 Oct ? 13:23:53 10° N 13:29:16 78° WNW 13:34:37 10° SSW visible
09 Oct ? 13:03:36 10° NNE 13:08:58 69° ESE 13:14:18 10° S visible
10 Oct ? 12:43:28 10° NNE 12:48:36 44° E 12:53:42 10° S visible
11 Oct ? 01:46:26 10° SW 01:49:32 16° W 01:52:39 10° NW visible
11 Oct ? 12:23:35 10° NE 12:28:11 28° E 12:32:46 10° SSE visible
12 Oct ? 12:04:03 10° NE 12:07:42 18° E 12:11:20 10° SE visible
